sat.trackr.live / text

‹ back to catalog

SES-8

NORAD 39460 · 2013-071A

PAYLOAD ACTIVE UNKNOWN

§ Identity

Operator
Country
SES
Launch date
2013-12-03
Launch site
AFETR
Launch vehicle
Mass (kg)
RCS (m²)
53.33

Purposes: comms

External: N2YO · Heavens-Above · Gunter

§ Orbital elements

Epoch: 2026-09-20T01:58:29.519040Z

Period
1,436.06 min
Inclination
0.0298°
Eccentricity
0.0002003
Mean motion
1.00274121 rev/d
Perigee alt
35,777.5 km
Apogee alt
35,794.4 km
Semi-major
42,164.1 km
B*
0.0000e+0
RAAN
260.9138°
Arg perigee
250.6539°
Mean anomaly
332.0598°
Rev number
4,538

§ Raw data

SES-81 39460U 13071A   26263.08228610 -.00000274  00000+0  00000+0 0  99922 39460   0.0298 260.9138 0002003 250.6539 332.0598  1.00274121 45385

JSON: /api/v1/satellites/39460 · /tle

For live sub-satellite position, see the globe view (requires WebGL).

§ Visibility from observer

Set your observer location to see the next 7 days of passes ≥ 10°. The values pass through the URL so the page stays shareable.

No JS? Fill the form by hand. The geolocation button needs JavaScript.